Wind_Speed
38 38 38 39 40 41 42 43 44 45 46 46 46 46 46 45 44 44 43 44 44 45 45 45 45 46 47 47 48 48 48 48 47 46 46 46 46 46 46 46 45 46 46
37 38 38 38 39 40 41 42 43 44 43 43 44 45 45 45 45 45 46 46 45 45 45 45 46 46 47 47 48 48 48 47 47 47 47 47 47 47 47 47 47 47 48
36 37 37 38 38 39 40 41 42 43 42 42 42 42 43 44 44 44 44 45 45 45 46 46 47 47 47 47 48 47 47 47 47 47 46 47 47 47 48 48 49 48 48
35 35 36 36 37 38 39 40 40 41 41 41 41 41 40 41 42 42 43 43 43 43 44 46 46 46 46 47 47 46 47 47 46 46 46 46 47 46 47 48 48 48 48
35 35 35 36 37 37 38 39 39 40 40 41 41 40 40 41 41 42 42 42 42 43 44 44 44 43 43 44 45 45 46 46 46 46 46 46 46 46 46 47 47 48 48
35 36 36 36 37 38 38 38 39 39 40 40 40 40 40 41 41 41 41 41 42 42 42 42 42 43 43 44 44 44 44 44 45 46 46 46 46 46 47 46 46 47 46
35 35 35 36 37 39 39 39 39 39 39 40 40 40 40 40 40 41 41 41 41 41 42 41 41 41 42 42 42 43 43 43 44 44 44 44 45 45 45 45 46 46 46
36 36 35 36 37 37 38 38 38 38 38 38 39 39 39 39 40 40 41 41 41 41 42 42 41 41 41 41 41 42 42 42 43 43 43 43 43 43 43 44 44 45 45
37 37 36 37 37 37 36 37 37 37 37 38 38 38 38 38 40 40 41 41 41 41 42 41 41 41 41 40 40 41 41 42 43 42 42 42 42 42 42 43 43 44 44
37 36 36 36 36 36 35 35 36 36 36 37 37 37 37 37 38 38 39 39 40 40 40 40 41 41 41 41 42 42 42 42 41 41 41 41 41 41 41 41 41 42 41
34 35 35 35 35 34 35 35 35 35 35 35 36 36 37 37 38 38 38 38 38 38 38 38 39 39 40 40 41 40 40 41 41 40 40 40 39 39 39 39 39 39 39
34 34 34 34 34 34 34 34 34 34 34 33 34 35 36 36 37 37 37 38 37 37 37 38 38 38 39 39 40 40 40 39 39 38 38 38 38 38 38 38 38 38 38
33 34 34 34 34 34 34 34 33 33 33 33 34 34 34 35 35 36 36 37 37 36 36 37 38 38 38 38 38 38 38 38 37 37 36 36 37 36 36 37 37 38 38
34 34 34 34 33 34 34 33 32 32 32 33 33 34 34 34 35 35 35 35 35 36 36 36 37 37 37 36 36 36 36 36 35 35 35 35 35 35 35 36 36 36 36
34 34 33 33 33 32 31 31 31 31 32 32 32 32 33 33 34 34 34 34 34 35 35 36 36 35 35 35 34 34 34 34 34 33 33 33 33 33 33 34 34 34 35
33 33 32 31 31 30 30 29 29 29 30 30 31 31 31 31 32 32 32 31 32 33 33 32 32 32 32 32 32 32 32 32 32 32 32 32 32 32 32 32 33 33 34
30 30 29 29 29 29 29 28 28 28 29 29 29 30 31 31 30 30 29 29 30 30 30 30 30 30 30 30 30 31 31 31 31 31 31 31 31 32 32 32 32 32 33
27 27 27 27 27 27 27 26 27 27 28 28 28 29 29 29 29 29 29 29 29 29 29 29 30 30 30 29 29 29 30 30 31 31 31 31 31 31 31 32 31 32 32
25 25 25 25 24 24 24 24 25 25 26 27 27 27 27 27 28 28 28 28 28 28 29 29 29 29 28 28 28 28 29 29 30 31 31 31 31 31 31 31 30 30 30
23 23 24 23 23 23 23 23 23 24 24 24 25 25 26 26 26 27 27 27 27 27 27 27 28 28 27 28 28 28 29 29 30 30 31 31 30 30 30 30 30 30 30
22 22 22 22 22 22 22 22 22 22 22 22 23 23 24 24 24 25 25 26 26 26 26 27 27 27 26 27 27 28 28 29 29 30 30 30 31 31 30 30 30 30 29
20 20 20 20 20 20 20 20 20 21 21 21 21 22 22 22 22 22 23 24 24 25 25 25 25 25 25 26 26 27 27 28 29 29 30 30 31 31 30 30 29 28 28
19 18 19 19 19 19 19 19 19 19 20 20 20 20 21 21 21 22 22 22 22 23 23 23 23 23 23 24 25 26 26 27 28 28 28 28 28 28 28 27 27 26 26
17 17 17 18 18 18 18 18 18 18 19 19 19 20 20 20 21 21 21 21 21 21 21 21 22 22 23 23 24 24 25 25 25 24 24 24 25 25 25 25 25 25 25
17 17 17 17 18 17 17 18 18 18 19 19 20 20 21 20 20 20 21 21 21 21 21 21 21 21 22 22 22 22 22 22 21 21 21 21 22 22 23 24 24 24 24
16 16 16 17 16 16 17 17 17 17 18 18 18 19 19 19 19 20 20 20 20 20 21 21 21 21 21 21 21 20 20 20 19 19 20 20 20 21 22 23 23 23 23
Wind_Direction
263 264 264 263 263 263 262 261 260 261 262 261 261 260 260 260 260 261 261 262 262 263 264 264 265 265 266 267 269 270 272 272 273 273 274 275 276 277 277 277 276 275 274
264 265 264 264 264 264 264 263 262 261 261 261 262 260 259 259 261 263 263 262 263 263 264 265 266 267 267 268 269 271 271 272 273 273 274 275 276 276 277 276 276 276 275
265 266 266 265 265 265 264 264 263 262 261 260 261 260 259 260 261 262 262 262 262 264 265 265 267 268 268 268 269 270 270 271 272 273 274 274 274 275 276 276 276 276 276
266 267 267 267 266 266 266 266 265 264 262 260 261 261 260 260 260 260 262 263 264 265 266 267 268 268 267 267 268 269 270 271 272 274 274 274 273 275 276 276 276 277 277
267 268 269 268 268 267 267 266 265 264 263 263 262 261 260 260 261 261 262 265 266 267 267 268 269 268 268 267 268 269 270 271 272 273 273 272 273 274 275 276 277 277 277
269 269 268 268 268 268 268 266 266 265 264 262 262 261 260 260 260 261 263 265 266 267 267 268 268 268 267 268 269 270 271 272 273 273 272 273 274 275 275 276 277 278 278
268 268 268 269 270 270 268 267 266 265 264 263 262 262 261 260 262 263 265 266 266 266 266 268 268 267 267 268 268 270 272 273 274 274 274 275 276 276 276 276 277 278 279
268 268 269 269 270 270 269 266 266 265 264 263 261 261 260 261 263 264 265 264 265 266 267 267 268 268 269 270 270 271 272 273 274 275 275 276 276 277 277 277 278 279 280
268 269 268 269 269 269 268 267 266 265 264 263 262 261 262 262 263 264 265 265 265 266 267 267 268 269 270 270 272 272 273 274 275 275 276 276 277 277 278 277 278 280 281
268 268 268 269 269 268 267 267 267 266 265 264 263 263 263 262 264 264 266 267 267 268 268 268 269 271 271 272 273 274 275 275 275 275 276 275 275 275 277 278 279 280 280
267 268 267 268 268 268 268 268 269 268 266 265 263 262 263 263 264 265 266 268 269 269 269 269 270 272 273 274 274 275 276 275 274 274 274 274 275 275 276 277 279 280 281
268 269 269 268 268 269 270 270 269 268 266 265 263 263 264 264 264 265 267 269 270 270 269 270 272 273 274 275 275 275 275 274 274 274 275 275 275 275 277 278 280 280 281
268 269 269 269 269 270 271 271 269 267 265 264 264 265 265 266 266 267 269 270 270 269 269 271 274 275 275 276 274 274 274 274 274 274 275 276 276 277 277 278 280 281 281
269 268 267 267 269 270 271 270 268 266 265 264 265 266 265 267 267 268 269 269 269 269 270 271 273 274 274 274 274 274 274 273 274 274 275 275 276 277 277 278 280 281 281
268 267 267 267 267 269 269 268 268 266 265 265 265 265 265 265 266 268 269 269 268 269 271 272 274 273 273 273 273 273 272 272 273 274 275 275 276 276 278 280 280 281 282
268 267 267 267 266 265 266 266 266 266 266 266 264 264 264 265 267 269 268 269 269 270 272 273 272 272 272 273 273 272 272 272 272 274 275 275 275 276 279 281 282 282 283
267 266 265 265 265 265 265 265 265 266 266 265 264 264 264 265 267 268 267 268 270 271 272 272 272 271 272 272 271 271 271 271 271 272 274 275 276 277 279 281 282 283 284
266 265 265 265 266 266 267 267 267 267 267 266 265 265 264 264 266 266 267 268 270 271 270 270 271 271 270 270 270 271 271 271 271 273 274 275 277 278 279 281 282 283 285
265 265 266 266 266 267 268 269 269 269 268 267 265 264 264 264 265 266 267 268 269 269 269 269 270 271 270 269 269 270 273 273 273 273 274 275 277 279 280 282 281 283 285
266 265 265 266 267 268 269 270 271 271 270 268 266 265 265 266 266 266 267 267 269 270 269 269 271 271 270 270 270 272 273 274 274 274 274 275 276 278 280 280 281 283 284
266 265 265 266 267 268 269 270 270 271 271 270 269 268 268 268 267 267 268 268 269 270 270 270 272 271 270 271 272 273 275 276 275 275 276 276 277 278 281 281 282 283 284
266 265 265 265 266 268 270 271 271 270 270 270 270 271 271 270 269 268 268 268 269 271 271 271 271 271 272 273 275 276 277 277 276 277 277 277 278 279 280 282 283 284 285
266 265 265 265 266 268 270 270 270 271 271 271 272 273 273 272 270 269 268 269 272 273 273 274 273 273 273 275 277 278 278 278 278 278 278 278 279 280 280 281 282 284 286
267 265 264 264 266 267 269 270 270 271 271 273 274 275 275 273 270 269 269 271 273 273 274 275 275 274 276 279 281 281 280 280 280 279 279 279 279 278 280 281 282 284 285
267 265 266 266 266 266 267 268 269 271 273 274 276 276 274 273 271 269 269 271 272 273 274 276 276 276 278 280 282 283 282 281 282 281 281 281 279 280 281 281 282 283 284
267 266 266 267 266 266 267 268 270 272 275 277 278 277 275 272 270 270 271 272 273 273 276 277 278 279 279 280 281 282 282 283 282 282 282 282 282 283 283 282 283 284 284
Height
5647 5647 5647 5647 5648 5648 5649 5650 5651 5652 5652 5653 5654 5654 5655 5657 5658 5659 5660 5661 5662 5662 5663 5664 5664 5664 5665 5665 5665 5665 5665 5666 5666 5667 5666 5664 5662 5661 5659 5657 5656 5655 5654
5637 5637 5637 5637 5637 5637 5637 5638 5638 5639 5640 5641 5642 5643 5643 5644 5646 5647 5648 5649 5650 5651 5651 5651 5652 5652 5652 5652 5652 5652 5652 5652 5653 5653 5653 5651 5650 5648 5647 5645 5643 5642 5641
5627 5627 5627 5627 5627 5627 5627 5627 5627 5627 5628 5629 5630 5631 5632 5633 5634 5635 5636 5636 5638 5638 5639 5639 5639 5639 5639 5639 5639 5639 5639 5639 5639 5639 5639 5638 5637 5635 5633 5632 5630 5629 5627
5616 5617 5617 5616 5616 5616 5616 5615 5615 5616 5616 5617 5618 5619 5620 5621 5622 5623 5624 5625 5625 5626 5626 5626 5626 5626 5626 5626 5626 5627 5626 5626 5626 5626 5626 5625 5623 5621 5619 5618 5617 5616 5614
5607 5607 5607 5606 5606 5605 5605 5604 5604 5605 5605 5606 5607 5608 5609 5610 5611 5612 5612 5613 5614 5614 5614 5614 5614 5614 5613 5614 5614 5614 5614 5613 5613 5612 5612 5611 5610 5608 5607 5605 5604 5602 5600
5597 5597 5596 5595 5595 5595 5594 5593 5593 5594 5594 5595 5596 5597 5598 5599 5600 5601 5601 5602 5602 5603 5603 5602 5602 5602 5602 5601 5601 5601 5601 5600 5600 5599 5598 5598 5597 5595 5593 5592 5590 5589 5588
5585 5585 5585 5585 5584 5584 5583 5583 5583 5583 5583 5584 5585 5586 5587 5588 5589 5590 5590 5590 5591 5591 5591 5590 5590 5589 5589 5589 5589 5589 5588 5587 5587 5586 5585 5584 5583 5582 5581 5579 5577 5575 5573
5574 5574 5574 5574 5573 5573 5572 5572 5572 5572 5573 5573 5574 5575 5576 5577 5577 5578 5578 5578 5579 5579 5578 5578 5578 5578 5577 5577 5577 5577 5576 5575 5575 5574 5573 5571 5570 5568 5566 5565 5563 5561 5559
5563 5563 5563 5563 5562 5562 5562 5561 5561 5562 5562 5562 5563 5564 5565 5566 5566 5566 5566 5566 5567 5567 5566 5566 5566 5566 5566 5565 5565 5565 5564 5563 5562 5561 5560 5558 5557 5555 5553 5552 5550 5548 5546
5553 5552 5552 5552 5552 5551 5551 5551 5551 5551 5551 5552 5552 5553 5554 5555 5555 5555 5555 5555 5556 5556 5555 5555 5555 5554 5554 5553 5553 5552 5552 5551 5550 5549 5547 5546 5544 5543 5541 5540 5538 5536 5534
5542 5542 5542 5541 5541 5541 5541 5540 5540 5541 5541 5541 5542 5543 5543 5544 5544 5544 5544 5544 5544 5544 5544 5544 5544 5543 5542 5542 5541 5540 5540 5539 5538 5537 5535 5534 5532 5531 5529 5528 5526 5524 5522
5532 5532 5532 5531 5531 5530 5530 5530 5530 5530 5530 5531 5531 5532 5532 5533 5533 5533 5533 5533 5533 5533 5534 5533 5533 5532 5531 5530 5529 5529 5528 5527 5526 5525 5524 5523 5521 5520 5519 5517 5515 5513 5511
5522 5522 5522 5521 5521 5521 5520 5520 5520 5520 5520 5520 5521 5521 5522 5522 5523 5523 5523 5523 5522 5522 5522 5522 5522 5521 5520 5519 5518 5517 5516 5515 5515 5514 5513 5512 5511 5510 5508 5506 5504 5502 5500
5513 5512 5512 5512 5511 5511 5510 5510 5510 5510 5510 5510 5511 5511 5512 5512 5513 5512 5512 5512 5512 5511 5511 5511 5510 5510 5509 5508 5507 5506 5505 5505 5504 5504 5503 5502 5501 5499 5497 5496 5494 5491 5489
5502 5502 5502 5501 5501 5501 5500 5500 5500 5500 5499 5500 5500 5501 5501 5502 5502 5502 5502 5501 5501 5501 5500 5500 5500 5499 5498 5497 5496 5495 5495 5495 5494 5494 5493 5492 5490 5489 5487 5485 5483 5481 5479
5492 5492 5492 5491 5491 5491 5491 5491 5490 5490 5490 5490 5490 5491 5491 5492 5492 5492 5491 5491 5491 5491 5490 5490 5489 5488 5488 5487 5487 5486 5486 5485 5485 5484 5483 5482 5481 5479 5478 5476 5474 5472 5470
5482 5482 5482 5482 5482 5482 5481 5481 5481 5481 5480 5480 5481 5481 5481 5482 5482 5482 5482 5482 5481 5481 5481 5480 5480 5479 5479 5478 5478 5477 5477 5476 5476 5475 5474 5472 5471 5469 5468 5466 5464 5462 5460
5473 5473 5473 5473 5473 5472 5472 5472 5472 5472 5472 5471 5471 5471 5472 5472 5472 5472 5473 5473 5472 5472 5471 5471 5471 5470 5469 5469 5468 5468 5468 5467 5466 5466 5464 5463 5462 5460 5458 5457 5455 5452 5450
5464 5464 5464 5464 5464 5464 5463 5463 5463 5463 5463 5463 5462 5462 5463 5463 5463 5463 5463 5464 5464 5463 5463 5462 5462 5461 5461 5460 5460 5459 5459 5458 5457 5456 5455 5454 5452 5451 5449 5447 5445 5443 5441
5456 5456 5456 5456 5456 5456 5456 5455 5455 5455 5454 5454 5454 5454 5454 5454 5454 5454 5454 5455 5454 5454 5454 5453 5453 5452 5452 5451 5451 5450 5450 5449 5448 5447 5446 5444 5443 5441 5440 5438 5436 5434 5431
5448 5448 5448 5448 5448 5448 5448 5448 5447 5447 5447 5447 5447 5446 5446 5446 5446 5446 5446 5446 5446 5446 5445 5445 5444 5444 5443 5443 5442 5442 5441 5440 5439 5437 5436 5435 5434 5432 5430 5428 5426 5424 5422
5441 5441 5441 5441 5441 5441 5441 5440 5440 5440 5440 5439 5439 5439 5438 5438 5438 5438 5438 5438 5438 5437 5437 5437 5436 5435 5435 5434 5434 5433 5432 5431 5429 5428 5427 5426 5424 5423 5421 5419 5417 5415 5413
5433 5434 5434 5434 5434 5434 5434 5434 5433 5433 5433 5432 5432 5432 5431 5431 5431 5430 5430 5430 5430 5430 5429 5429 5428 5427 5427 5426 5425 5424 5423 5422 5420 5419 5417 5416 5415 5413 5412 5410 5409 5407 5405
5427 5427 5427 5427 5427 5427 5427 5427 5427 5427 5426 5426 5425 5425 5424 5424 5423 5423 5423 5423 5423 5422 5422 5421 5421 5420 5419 5418 5417 5416 5414 5413 5411 5410 5409 5407 5406 5405 5404 5402 5401 5399 5397
5421 5421 5421 5421 5421 5421 5421 5421 5421 5421 5420 5420 5419 5418 5417 5417 5416 5416 5416 5416 5416 5415 5415 5414 5413 5413 5412 5411 5409 5408 5406 5405 5404 5402 5401 5400 5398 5397 5396 5395 5393 5392 5390
5415 5415 5415 5415 5415 5415 5415 5415 5415 5414 5414 5413 5412 5411 5411 5410 5410 5410 5409 5409 5409 5408 5408 5407 5406 5405 5404 5403 5402 5401 5399 5398 5397 5395 5394 5393 5392 5390 5389 5387 5386 5384 5383